DOVO2: Cimarron River, Dover, OK

                                SHEF ID:       DOVO2     Cimarron River near Dover, OK
STATION TYPE:
Regulating: Stage = 17.00, Flow = 13082

PRECIP STAGE RIV-FLOW BAT-LOAD
in ft cfs volt
Ccp-Rev Ccp-Rev Ccp-Rev Ccp-Rev
(America/Chicago)
04/25 00:00 0.00 9.66 159 12.11
04/25 01:00 0.00 9.65 156 12.10
04/25 02:00 0.00 9.63 149 12.08
04/25 03:00 0.00 9.62 146 12.07
04/25 04:00 0.00 9.61 142 12.04
04/25 05:00 0.00 9.61 142 12.02
04/25 06:00 0.00 9.59 136 11.99
04/25 07:00 0.00 9.58 133 11.95
04/25 08:00 0.00 9.56 127 12.07
04/25 09:00 0.00 9.57 130 12.36
04/25 10:00 0.00 9.55 124 12.96
04/25 11:00 0.00 9.55 124 13.43
04/25 12:00 0.00 9.55 124 13.41
04/25 13:00 0.00 9.54 121 13.33
04/25 14:00 0.00 9.54 121 13.36
04/25 15:00 0.00 9.52 115 13.26
04/25 16:00 0.00 9.53 118 13.29
04/25 17:00 0.00 9.53 118 13.51
04/25 18:00 0.00 9.53 118 13.36
04/25 19:00 0.00 9.53 118 13.17
04/25 20:00 0.00 9.52 115 12.99
04/25 21:00 0.00 9.51 113 12.42
04/25 22:00 0.00 9.52 115 12.11
04/25 23:00 ---- ---- ---- ----
Data processed at Sun 26Apr2026 03:48 GMT

NOTICE: If you are parsing this page

Please convert to using our Data API. Starting early 2026 we will be migrating to: https://water.usace.army.mil with modern pages rendered in JavaScript. When this migration completes you will no longer be able to scrape this page! CWMSDataAPI (CDA)

Timeseries IDs (TSIDs)

TSIDs used from left to right in the data table
DOVE.Precip-Inc.Total.1Hour.1Hour.Ccp-Rev
DOVE.Stage.Inst.1Hour.0.Ccp-Rev
DOVE.Flow.Inst.1Hour.0.Ccp-Rev
DOVE.Volt-Battery Load.Inst.1Hour.0.Ccp-Rev

                            

All information presented herein is the property of the government of the United States of America and may be revised or deleted at any time without prior notice. Dissemination of this information without the expressed written consent of the Public Affairs Office, Tulsa District U.S. Army Corps of Engineers is strictly prohibited. These data are gathered electronically and, as presented, have NOT undergone any form of quality control. These data are NOT guaranteed to be valid or correct.